This demonstration page uses our WeatherBlox Daily Observations layout. Learn more.

Left ArrowRight Arrow

Hourly Observations for June 24, 2019

Temp ( °F °C ) Dew Point ( °F °C ) Humidity (%) Winds ( mph kmh ) Pressure ( in mb ) Visibility ( mi km ) Precip ( " mm )
12:53 am 00:53 Cloudy 70 21.1 67 19.4 90 90 S 3 6 29.84 1011 10 16 N/A
1:53 am 01:53 Clear 69 20.6 67 19.4 93 93 N N/A 29.82 1010 10 16 N/A
2:53 am 02:53 Clear 69 20.6 66 18.9 90 90 N N/A 29.80 1009 10 16 N/A
3:53 am 03:53 Clear 68 20 66 18.9 93 93 SSE 3 6 29.79 1009 10 16 N/A
4:53 am 04:53 Mostly Clear 68 20 66 18.9 93 93 SE 3 6 29.79 1009 10 16 N/A
5:53 am 05:53 Clear 67 19.4 66 18.9 97 97 N N/A 29.78 1009 10 16 N/A
6:53 am 06:53 Sunny 68 20 67 19.4 96 96 N N/A 29.79 1009 10 16 N/A
7:53 am 07:53 Sunny 71 21.7 67 19.4 87 87 VRB 3 6 29.79 1009 10 16 N/A
8:53 am 08:53 Mostly Cloudy 74 23.3 68 20 82 82 SSW 7 11 29.80 1009 10 16 N/A
9:53 am 09:53 Mostly Cloudy 74 23.3 68 20 82 82 SSW 6 9 29.80 1009 10 16 N/A
10:53 am 10:53 Partly Cloudy 77 25 69 20.6 77 77 VRB 5 7 29.80 1009 10 16 N/A
11:53 am 11:53 Cloudy 76 24.4 68 20 77 77 WSW 6 9 29.79 1009 10 16 N/A
12:53 pm 12:53 Mostly Cloudy 76 24.4 68 20 77 77 SW 8 13 29.78 1008 10 16 N/A
1:53 pm 13:53 Cloudy 76 24.4 68 20 77 77 SSW 5 7 29.77 1008 10 16 N/A
2:53 pm 14:53 Cloudy 76 24.4 70 21.1 82 82 N N/A 29.73 1007 10 16 0.01 0.25
3:53 pm 15:53 Cloudy with Heavy Rain 73 22.8 70 21.1 90 90 W 8 13 29.73 1007 2 3 0.05 1.27
3:57 pm 15:57 Cloudy with Heavy Rain 72 22.2 69 20.6 91 91 W 7 11 29.72 1006 1 1 0.05 1.27
4:04 pm 16:04 Cloudy with Heavy Rain 71 21.7 70 21.1 96 96 W 10 17 29.72 1006 1 1 0.15 3.81
4:13 pm 16:13 Cloudy with Heavy Rain 71 21.7 69 20.6 94 94 W 7 11 29.72 1006 1 2 0.19 4.83
4:22 pm 16:22 Cloudy with Light Rain 71 21.7 70 21.1 96 96 WSW 3 6 29.72 1006 2 3 0.21 5.33
4:31 pm 16:31 Cloudy with Light Rain 71 21.7 70 21.1 96 96 VRB 5 7 29.71 1006 5 8 0.22 5.59
4:44 pm 16:44 Cloudy with Light Rain 71 21.7 70 21.1 96 96 WSW 6 9 29.71 1006 9 14 0.22 5.59
4:53 pm 16:53 Cloudy with Light Rain 72 22.2 70 21.1 94 94 VRB 5 7 29.71 1006 9 14 0.22 5.59
5:12 pm 17:12 Cloudy with Light Rain 72 22.2 70 21.1 94 94 WSW 5 7 29.70 1006 10 16 N/A
5:24 pm 17:24 Cloudy with Light Rain 73 22.8 70 21.1 90 90 W 5 7 29.70 1006 10 16 0.01 0.25
5:36 pm 17:36 Cloudy 73 22.8 69 20.6 87 87 W 7 11 29.71 1006 10 16 0.01 0.25
5:53 pm 17:53 Cloudy 73 22.8 68 20 84 84 W 8 13 29.72 1006 10 16 0.01 0.25
6:26 pm 18:26 Partly Cloudy 74 23.3 67 19.4 79 79 W 9 15 29.72 1006 10 16 N/A
6:53 pm 18:53 Partly Cloudy 75 23.9 67 19.4 76 76 W 6 9 29.73 1007 10 16 N/A
7:24 pm 19:24 Mostly Cloudy 73 22.8 66 18.9 79 79 W 8 13 29.75 1007 10 16 N/A
7:38 pm 19:38 Partly Cloudy 74 23.3 66 18.9 76 76 VRB 7 11 29.76 1008 10 16 N/A
7:53 pm 19:53 Mostly Sunny 74 23.3 67 19.4 79 79 VRB 3 6 29.76 1008 10 16 N/A
8:53 pm 20:53 Sunny 72 22.2 68 20 87 87 SSW 3 6 29.78 1009 10 16 N/A
9:53 pm 21:53 Clear 71 21.7 67 19.4 87 87 VRB 3 6 29.79 1009 10 16 N/A
10:53 pm 22:53 Clear 67 19.4 67 19.4 100 100 S 3 6 29.81 1009 10 16 N/A
11:53 pm 23:53 Mostly Clear 70 21.1 67 19.4 90 90 SSW 3 6 29.82 1010 10 16 N/A

Powered by AerisWeather